Regional Weather Roundup
Issued by NWS Cleveland, OH

Home | Current Version | Previous Version | Text Only | Print | Product List | Glossary Off
Versions: 1 2 3 4 5 6 7 8 9 10 11 12 13 14 15 16 17 18 19 20 21 22 23 24 25 26 27 28 29 30 31 32 33 34 35 36 37 38 39 40 41 42 43 44 45 46 47 48 49 50

366
ASUS41 KCLE 250710
RWRCLE
OHIO REGIONAL WEATHER ROUNDUP
NATIONAL WEATHER SERVICE CLEVELAND, OH
300 AM EDT SAT MAR 25 2017

NOTE: "FAIR" INDICATES FEW OR NO CLOUDS BELOW 12,000 FEET WITH NO
SIGNIFICANT WEATHER AND/OR OBSTRUCTIONS TO VISIBILITY.

OHZ001>008-015>018-024>027-034-035-043-044-250800-
   NORTHWEST OHIO

CITY           SKY/WX    TMP DP  RH WIND       PRES   REMARKS
DEFIANCE       CLOUDY    59  51  75 S6        30.04F
FINDLAY        CLOUDY    61  51  70 SW12      30.05F
TOLEDO EXPRESS CLOUDY    49  42  77 E10       30.06R
TOLEDO EXEC    CLOUDY    46  41  82 NE7       30.09R
LIMA           CLOUDY    61  52  72 S9        30.07S
$$

OHZ009>014-019>023-028>033-038-089-250800-
   NORTHEAST OHIO

CITY           SKY/WX    TMP DP  RH WIND       PRES   REMARKS
CLE-HOPKINS    MOCLDY    58  47  66 CALM      30.10R
CLE-LAKEFRONT  CLOUDY    47  42  83 CALM      30.07R
CUY CO. ARPT   NOT AVBL
LORAIN-ELYRIA  CLOUDY    54  46  74 CALM      30.08R
ASHTABULA      CLOUDY    54  48  80 SW3       30.08S
AKRON-CANTON   MOCLDY    62  50  64 SW5       30.10S
WOOSTER        CLOUDY    62  51  67 SW7       30.10R
MANSFIELD      PTCLDY    64  52  64 MISG      30.09S
YOUNGSTOWN     CLOUDY    63  51  65 SW14      30.09S
$$

OHZ042-051>053-060>062-070>072-077>081-250800-
  SOUTHWEST OHIO

CITY           SKY/WX    TMP DP  RH WIND       PRES   REMARKS
CINC-COVINGTON CLOUDY    60  52  74 S8        30.12F
CINC-LUNKEN    MOCLDY    57  51  80 S3        30.13F
HAMILTON       PTCLDY    64  53  67 VRB5      30.11F
DAYTON         CLOUDY    62  52  69 S13       30.10F
WRIGHT-PAT AFB CLOUDY    64  53  69 S13       30.09F
DAYTON GENERAL CLOUDY    61  52  72 S9        30.11S
WILMINGTON     PTCLDY    59  51  75 S10       30.12F
$$

OHZ036-037-039>041-045>050-054>059-063>069-073>076-082>088-250800-
  CENTRAL AND SOUTHEAST OHIO

CITY           SKY/WX    TMP DP  RH WIND       PRES   REMARKS
COLUMBUS       CLOUDY    62  52  69 S8        30.11F
OSU AIRPORT    PTCLDY    60  53  77 SW6       30.11R
BOLTON FIELD   CLOUDY    60  52  76 S9        30.12S
RICKENBACK AFB CLOUDY    61  52  72 S12       30.11S
NEWARK         CLOUDY    63  51  65 S7        30.11S
MARION         CLOUDY    59  51  75 S9        30.09S
LANCASTER      MOCLDY    66  51  58 SW7G17    30.13S
ZANESVILLE     CLOUDY    61  50  67 S6        30.12S
NEW PHILLY     NOT AVBL
$$




USA.gov is the U.S. government's official web portal to all federal, state and local government web resources and services.